Location: Newark
(3.1475°N, 101.6933°E)
Time: 09:01:43
(UTC+00:00)

Hubble Space Telescope - Pass Details

Date: 26 October 2019
Orbit: 536 x 540 km, 28.5° (Epoch: 17 November)

Event Time Altitude Azimuth Distance (km) Brightness Sun altitude
Exits shadow 21:04:18 11° 33° (NNE) 1,715 3.5 -28.2°
Drops below altitude 10° 21:04:25 10° 33° (NNE) 1,757 3.6 -28.2°
Sets 21:06:55 0° 45° (NE) 2,662 4.7 -27.6°
